sat.trackr.live / text

‹ back to catalog

STARLINK-4703

NORAD 53855 · 2022-114AP

PAYLOAD ACTIVE UNKNOWN

§ Identity

Operator
Country
US
Launch date
2022-09-19
Launch site
AFETR
Launch vehicle
Mass (kg)
RCS (m²)

Purposes: comms

External: N2YO · Heavens-Above · Gunter

§ Orbital elements

Epoch: 2026-05-25T04:28:37.946784Z

Period
95.44 min
Inclination
53.2140°
Eccentricity
0.0001265
Mean motion
15.08840122 rev/d
Perigee alt
538.9 km
Apogee alt
540.6 km
Semi-major
6,917.9 km
B*
8.1313e-5
RAAN
310.4564°
Arg perigee
86.9552°
Mean anomaly
273.1585°
Rev number
20,452

§ Raw data

STARLINK-47031 53855U 22114AP  26145.18655031  .00001006  00000+0  81313-4 0  99992 53855  53.2140 310.4564 0001265  86.9552 273.1585 15.08840122204520

JSON: /api/v1/satellites/53855 · /tle

For live sub-satellite position, see the globe view (requires WebGL).

§ Visibility from observer

Set your observer location to see the next 7 days of passes ≥ 10°. The values pass through the URL so the page stays shareable.

No JS? Fill the form by hand. The geolocation button needs JavaScript.